Location: ??
(34.9170°N, 135.5016°E)
Time: 11:11:01
(UTC+00:00)

DELTA 2 R/B (1) - Pass Details

Date: 29 October 2020
Orbit: 790 x 803 km, 39.6° (Epoch: 26 November)

Event Time Altitude Azimuth Distance (km) Brightness Sun altitude
Exits shadow 19:02:40 49° 171° (S) 1,024 4.1 -28.0°
Drops below altitude 10° 19:07:08 10° 132° (SE) 2,364 6.6 -27.1°
Sets 19:09:39 0° 128° (SE) 3,293 7.5 -26.6°
